Regional Weather Roundup
Issued by NWS Midland/Odessa, TX

Home | Current Version | Previous Version | Text Only | Print | Product List | Glossary On
Versions: 1 2 3 4 5 6 7 8 9 10 11 12 13 14 15 16 17 18 19 20 21 22 23 24 25 26 27 28 29 30 31 32 33 34 35 36 37 38 39 40 41 42 43 44 45 46 47 48 49 50
000
ASUS44 KMAF 301010
RWRMAF
MIDLAND AREA WEATHER ROUNDUP
NATIONAL WEATHER SERVICE MIDLAND TX
400 AM CST FRI JAN 30 2015

...IN SOUTHWEST TEXAS AND SOUTHEAST NEW MEXICO...

CITY           SKY/WX    TMP DP  RH WIND       PRES   REMARKS
ALPINE         CLOUDY    41  29  61 NE9       30.42F WCI  35
ANDREWS        CLOUDY    40  32  71 E7        30.42F WCI  36
ARTESIA        CLOUDY    45  28  53 S7        30.43F
BIG SPRING     CLOUDY    44  26  49 NE12      30.45F WCI  39
CARLSBAD       CLOUDY    44  31  60 N8        30.41F WCI  39
DRYDEN           N/A     52  31  44 NE13      30.36F
FORT STOCKTON  CLOUDY    45  29  53 E9        30.40F
GUAD PASS      CLOUDY    35  26  69 NE40      30.31F WCI  20
HOBBS          CLOUDY    41  23  48 E8        30.43S WCI  36
MARFA          CLOUDY    41  28  60 NE13      30.35F WCI  34
MIDLAND AIRPK  CLOUDY    45  29  53 E8        30.42F
MIDLAND INTL   CLOUDY    44  28  53 E14       30.40F WCI  37
ODESSA         CLOUDY    44  29  55 E10       30.40F WCI  39
PECOS          LGT RAIN  46  33  61 NE6       30.41F
PRESIDIO       FAIR      55  36  48 NE17G25   30.27F
SEMINOLE       CLOUDY    42  27  54 E6        30.43F WCI  38
SNYDER         CLOUDY   N/A N/A N/A E13       30.45F
WINK           CLOUDY    45  31  58 NE6       30.40F
$$
...OTHER STATIONS IN TEXAS...

CITY           SKY/WX    TMP DP  RH WIND       PRES   REMARKS
ABILENE        MOCLDY    43  30  60 NE7       30.45F WCI  39
AMARILLO       CLOUDY    36  27  69 SE8       30.46S WCI  30
AUSTIN         CLOUDY    51  34  52 N21G30    30.39S
BROWNSVILLE    MOCLDY    61  60  97 NE5       30.26S FOG
CORPUS CHRISTI CLOUDY    61  58  90 N10       30.30R
DALLAS FTW     CLOUDY    43  31  62 N7        30.46F WCI  39
DEL RIO        CLOUDY    58  37  45 CALM      30.35F
EL PASO        LGT RAIN  43  38  82 NE8       30.30F WCI  38
HOUSTON INT    MOCLDY    53  41  63 N10       30.34F
LUBBOCK        CLOUDY    40  29  64 E5        30.44F WCI  37
SAN ANGELO     CLOUDY    47  31  53 NE9       30.43S
SAN ANTONIO    MOCLDY    54  35  48 N12       30.36F
WACO           MOCLDY    46  33  60 N10       30.43F
WICHITA FALLS  NOT AVBL
$$
...OTHER LOCATIONS IN NEW MEXICO...

CITY           SKY/WX    TMP DP  RH WIND       PRES   REMARKS
ALAMAGORDO     CLOUDY    45  36  70 NE7       30.30F
ALBUQUERQUE    CLOUDY    36  28  73 E16G23    30.35F WCI  26
CANNON AFB     CLOUDY    38  29  69 CALM      30.43F
CLOVIS         CLOUDY    37  28  70 SE3       30.44F
HOLLOMAN AFB   CLOUDY    45  37  76 CALM      30.28F
ROSWELL        CLOUDY    44  28  53 E5        30.41F
RUIDOSO        LGT SNOW  28  27  93 SE10      30.38F WCI  19
SANTA FE       SNOW      28  26  92 SE10      30.39F VSB 1/2 WCI  19
TRUTH OR CONSE LGT RAIN  41  37  86 N7        30.28F WCI  36
TUCUMCARI      CLOUDY    39  32  76 CALM      30.42F
$$



USA.gov is the U.S. government's official web portal to all federal, state and local government web resources and services.